Regional Weather Roundup
Issued by NWS

Home | Current Version | Previous Version | Graphics & Text | Print | Product List | Glossary On
Versions: 1 2 3 4 5 6 7 8 9 10 11 12 13 14 15 16 17 18 19 20 21 22 23 24 25 26 27 28 29 30 31 32 33 34 35 36 37 38 39 40 41 42 43 44 45 46 47 48 49 50
000
ASUS43 KMKX 171900
RWRWI

WISCONSIN REGIONAL WEATHER ROUNDUP
NATIONAL WEATHER SERVICE MILWAUKEE/SULLIVAN WI
100 PM CST WED DEC 17 2014

NOTE: "FAIR" INDICATES FEW OR NO CLOUDS BELOW 12,000 FEET WITH NO
SIGNIFICANT WEATHER AND/OR OBSTRUCTIONS TO VISIBILITY.

WIZ001-002-006>008-014>016-023>028-172000-
NORTHWEST WISCONSIN

CITY           SKY/WX    TMP DP  RH WIND       PRES   REMARKS
SUPERIOR ARPT  FLURRIES  19  11  72 CALM      30.30R
ASHLAND        CLOUDY    23  18  81 NW6       30.24F WCI  16
HAYWARD        CLOUDY    18  10  71 W3        30.23F
SIREN          PTSUNNY   18   9  69 N7        30.28S WCI   8
CUMBERLAND     FLURRIES  16   9  73 NW7       30.25S WCI   6
RICE LAKE      FLURRIES  18  10  69 NW6       30.28S WCI  10
CHETEK         CLOUDY    18   9  69 W5        30.26S WCI  11
LADYSMITH      PTSUNNY   20  10  67 NW5       30.24S WCI  13
EAU CLAIRE     NOT AVBL
MENOMONIE      CLOUDY    19  11  69 W6        30.28S WCI  11
NEW RICHMOND   FLURRIES  16  11  80 W7        30.29F WCI   7
OSCEOLA        FLURRIES  17  11  75 NW9       30.33S WCI   6
$$

WIZ003>005-009-010-017-018-172000-
NORTH CENTRAL WISCONSIN

CITY           SKY/WX    TMP DP  RH WIND       PRES   REMARKS
MANITOWISH WTR LGT SNOW  19  15  86 NW9       30.14R WCI   7
ARBOR VITAE    FLURRIES  22  16  79 NW9       30.13S WCI  11
WOODRUFF       FLURRIES  22  16  79 NW9       30.13S WCI  11
RHINELANDER    LGT SNOW  19  12  74 NW10      30.13S WCI   7
EAGLE RIVER    LGT SNOW  20  14  77 NW8       30.11S WCI  10
LAND O LAKES   LGT SNOW  23  19  84 N9        30.11S WCI  13
PHILLIPS       PTSUNNY   19  10  70 NW7       30.17S WCI   9
TOMAHAWK       PTSUNNY   20  12  69 NW5       30.16S WCI  14
MEDFORD        MOSUNNY   17   9  70 NW7       30.17F WCI   7
MERRILL        SUNNY     22  11  63 N9        30.15F WCI  11
$$

WIZ029-030-035-036-043>047-172000-
CENTRAL WISCONSIN

CITY           SKY/WX    TMP DP  RH WIND       PRES   REMARKS
WAUSAU         SUNNY     21  11  65 W10       30.16F WCI  10
MOSINEE        NOT AVBL
MARSHFIELD     CLOUDY    20  13  74 W14       30.19F WCI   7
STEVENS POINT  PTSUNNY   19  10  67 NW9       30.18F WCI   9
WAUPACA        PTSUNNY   25  14  64 NW9       30.19F WCI  15
WAUTOMA        NOT AVBL
WISC RAPIDS    CLOUDY    21  13  71 NW10      30.21S WCI  10
CAMP DOUGLAS   NOT AVBL
$$

WIZ011>013-019>022-031-037>040-048>050-172000-
NORTHEAST WISCONSIN

CITY           SKY/WX    TMP DP  RH WIND       PRES   REMARKS
ANTIGO         MOSUNNY   20  12  72 NW12G17   30.12F WCI   8
SHAWANO        MOSUNNY   27  15  61 NW12      30.16F WCI  16
OCONTO         CLOUDY    24  16  71 W12G17    30.14S WCI  13
STURGEON BAY   CLOUDY    25  16  68 W14G22    30.12S WCI  13
GREEN BAY      LGT SNOW  24  16  71 NW14      30.15F WCI  12
MANITOWOC      NOT AVBL
APPLETON       PTSUNNY   25  14  63 W16       30.16F WCI  12
CLINTONVILLE   PTSUNNY   27  14  59 NW15      30.16F WCI  15
OSHKOSH        CLOUDY    24  15  68 NW12      30.17F WCI  13
$$

WIZ032>034-041-042-053>061-172000-
SOUTHWEST WISCONSIN

CITY           SKY/WX    TMP DP  RH WIND       PRES   REMARKS
LA CROSSE      MOSUNNY   24  12  60 NW10      30.27F WCI  14
SPARTA         CLOUDY    22  13  69 W7        30.26S WCI  13
VIROQUA        CLOUDY    20  14  79 NW7       30.22S WCI  11
BOSCOBEL       CLOUDY    22  13  68 W6        30.27F WCI  14
PRAIRIE DU CHI FLURRIES  22  12  64 NW6       30.28F WCI  15
PLATTEVILLE    CLOUDY    21  16  81 CALM      30.24F
$$

WIZ056-057-062-063-064-067-068-172000-
SOUTH CENTRAL WISCONSIN

CITY           SKY/WX    TMP DP  RH WIND       PRES   REMARKS
REEDSBURG      CLOUDY    23  15  71 W10       30.22S WCI  12
BARABOO/DELLS  CLOUDY    24  15  69 NW12      30.20F WCI  12
LONE ROCK      NOT AVBL
MINERAL POINT  FLURRIES  23  18  80 NW6       30.21F WCI  16
MADISON        FLURRIES  25  15  66 W8        30.20F WCI  16
MIDDLETON      CLOUDY    26  16  65 NW10G16   30.21S WCI  16
WATERTOWN      CLOUDY    24  17  72 NW10      30.19S WCI  14
MONROE         CLOUDY    23  19  86 W14       30.20F WCI  11
JANESVILLE     CLOUDY    27  18  69 NW12      30.21F WCI  16
$$

WIZ051-052-058>065-066-070>072-172000-
SOUTHEAST WISCONSIN

CITY           SKY/WX    TMP DP  RH WIND       PRES   REMARKS
MILWAUKEE      CLOUDY    26  14  60 W13G20    30.19S WCI  15
WAUKESHA       CLOUDY    23  16  74 W14       30.19F WCI  11
MILWAUKEE/TIMM CLOUDY    25  16  68 NW17      30.19F WCI  11
RACINE         CLOUDY    27  17  66 W10       30.20F WCI  17
BURLINGTON     CLOUDY    24  16  71 NW14      30.19F WCI  12
KENOSHA        CLOUDY    26  18  71 W10       30.19F WCI  16
FOND DU LAC    CLOUDY    25  16  68 W13       30.17F WCI  14
SHEBOYGAN      CLOUDY    25  15  66 NW14G24   30.16S WCI  13
WEST BEND      CLOUDY    25  18  74 W13G20    30.17S WCI  13
JUNEAU         CLOUDY    23  16  74 W10       30.19F WCI  12
$$

LSZ147-162-172000-
LAKE SUPERIOR

STATION/POSITION TIME  TEMP    WIND        PRES    WAVE
                       AIR SEA DIR/SP/G            HT/PER
                 (UTC) (F)     (DEG/KT/KT) (MB)    (FT/S)
DEVILS ISLAND    1800   24      20/ 12/ 15 1025.4S
PORT WING        1800   22     330/ 10/ 11 1025.1S
SAXON HARBOR     1800   22     270/  2/  7 1023.7F
$$

LMZ867-665-643>646-172000-
LAKE MICHIGAN

STATION/POSITION TIME  TEMP    WIND        PRES    WAVE
                       AIR SEA DIR/SP/G            HT/PER
                 (UTC) (F)     (DEG/KT/KT) (MB)    (FT/S)
CHAMBERS ISLAND  1800   25     260/  7/ 15 1019.3F
NORTHPORT PIER   1800   26     290/ 14/ 20 1018.3F
SISTER BAY       1813          320/ 23/ 26   N/A
ALGOMA LAKESHORE 1814          330/ 13/ 17   N/A
KEWAUNEE LAKESHO 1800   25     300/ 14/ 19 1019.4F
SHEBOYGAN LAKESH 1800   25 35  270/ 16/ 20 1022.4F
PORT WASHINGTON  1800   26     280/  9/ 12 1022.7F
MILWAUKEE LAKESH 1800   26     290/ 12/ 17   N/A
KENOSHA   LAKESH 1800   26     290/ 12/ 16 1022.7F
$$

TC  - TEMPERATURE IN CELSIUS
VSB - VISIBILITY IN STATUTE MILES
WCI - WIND CHILL INDEX
HX  - HEAT INDEX




USA.gov is the U.S. government's official web portal to all federal, state and local government web resources and services.